Location: Newark
(51.2625°N, 13.3939°E)
Time: 17:15:32
(UTC+00:00)

deb Explorer IX - Pass Details

Date: 26 November 2019
Orbit: 546 x 1105 km, 38.8° (Epoch: 09 December)

Event Time Altitude Azimuth Distance (km) Brightness Sun altitude
Rises 19:44:57 0° 195° (SSW) 3,901 - -42.6°
Reaches altitude 10° 19:49:54 10° 167° (SSE) 2,950 - -43.3°
Maximum altitude 19:52:20 12° 147° (SSE) 2,795 - -43.6°
Drops below altitude 10° 19:54:44 10° 127° (SE) 2,913 - -44.0°
Sets 19:59:31 0° 99° (E) 3,789 - -44.7°
